Regional Weather Roundup
Issued by NWS

Home | Current Version | Previous Version | Graphics & Text | Print | Product List | Glossary On
Versions: 1 2 3 4 5 6 7 8 9 10 11 12 13 14 15 16 17 18 19 20 21 22 23 24 25 26 27 28 29 30 31 32 33 34 35 36 37 38 39 40 41 42 43 44 45 46 47 48 49 50
000
ASUS43 KFSD 291402
RWRSD

WEATHER ROUNDUP FOR SOUTH DAKOTA
NATIONAL WEATHER SERVICE SIOUX FALLS SD
900 AM CDT SUN MAR 29 2015

NOTE: "FAIR" INDICATES FEW OR NO CLOUDS BELOW 12,000 FEET WITH NO
SIGNIFICANT WEATHER AND/OR OBSTRUCTIONS TO VISIBILITY.


SDZ001>005-009-010-012>017-291500-
NORTHWEST AND NORTH CENTRAL SOUTH DAKOTA

CITY           SKY/WX    TMP DP  RH WIND       PRES   REMARKS
BUFFALO          N/A     37  32  82 W14       30.10R
FAITH            N/A     40  30  67 NW23G30   30.12R
MOBRIDGE       CLOUDY    41  34  76 NW28G37   29.98R
$$

SDZ012>016-024>037-041>051-057-063-072>074-291500-
SOUTHWEST AND SOUTH CENTRAL SOUTH DAKOTA

CITY           SKY/WX    TMP DP  RH WIND       PRES   REMARKS
RAPID CTY ARPT PTSUNNY   43  34  70 N28G36    30.17R
PIERRE         CLOUDY    44  32  62 NW33G51   30.02R
CUSTER         SUNNY     38  18  44 VRB7      30.16R
ELLSWORTH AFB  PTSUNNY   43  35  72 N29G41    30.14R
PHILIP         SUNNY     44  27  51 NW23G36   30.13R
PINE RIDGE     MOSUNNY   46  26  45 N17G28    30.18R
SPEARFISH      FAIR      41  32  70 NW17G29   30.21R
WINNER         LGT RAIN  47  32  56 NW44G56   30.00R
$$

SDZ004>011-016>023-039-040-291500-
NORTHEAST SOUTH DAKOTA

CITY           SKY/WX    TMP DP  RH WIND       PRES   REMARKS
ABERDEEN       CLOUDY    42  37  82 NW31G40   29.87R
WATERTOWN      LGT RAIN  41  37  86 NW30G38   29.75R
SISSETON         N/A     41  39  93 N31G38    29.72R
$$

SDZ017-020-022-023-036>040-048>070-291500-
SOUTHEAST SOUTH DAKOTA

CITY           SKY/WX    TMP DP  RH WIND       PRES   REMARKS
SIOUX FALLS    PTSUNNY   49  36  61 W21G33    29.76R
HURON          CLOUDY    44  38  79 NW35G51   29.85R
MITCHELL       CLOUDY    47  37  68 NW39G51   29.88R
YANKTON        CLOUDY   N/A N/A N/A W28G41    29.84R
$$

ABBREVIATIONS USED IN REMARKS
   TC - TEMPERATURE IN CELSIUS
  WCI - WIND CHILL INDEX
   HX - HEAT INDEX
  VSB - VISIBILITY



USA.gov is the U.S. government's official web portal to all federal, state and local government web resources and services.